[[{"header":{"parameterUnit":"m.s-1","parameterCategory":1,"la1":30.2991,"la2":30.254,"lo1":-89.0895,"lo2":-89.0444,"dy":0.0017,"dx":0.0017,"nx":28,"ny":28,"refTime":"2024-05-08T03:00:00:Z","depth":0,"parameterNumber":2,"parameterNumberName":"U-component_of_WINDS"},"data":[0,0,0,0,0,0,0,0,0,0,0,0,0,0,0,0,0,0,0,0,0,0,0,0,0,0,0,0,0,0,0,0,0,0,0,0,0,0,0,0,0,0,0,0,0,0,0,0,0,0,0,0,0,0,0,0,0,0,-1.5511,-1.5511,0,-1.5481,-1.548,-1.548,-1.5459,-1.5458,-1.5458,-1.5458,-1.5427,-1.5427,-1.5426,0,0,0,0,0,0,0,0,0,0,0,0,0,-1.5552,-1.5551,-1.5511,-1.5511,-1.551,-1.5481,-1.548,-1.548,-1.5459,-1.5458,-1.5458,-1.5458,-1.5427,-1.5427,-1.5426,0,0,0,0,0,0,0,0,0,0,0,0,0,-1.5529,-1.5551,-1.5511,-1.5496,-1.5494,-1.5481,-1.548,-1.548,-1.5459,-1.5458,-1.5458,-1.5458,-1.5428,-1.5427,-1.5426,-1.5425,0,0,-1.5423,-1.5422,0,0,0,0,0,0,0,0,-1.5531,-1.5528,-1.5499,-1.5497,-1.5495,-1.5473,-1.5483,-1.5461,-1.5459,-1.5472,-1.5458,-1.5458,-1.5443,-1.544,-1.5435,-1.5423,-1.5422,-1.5423,-1.5422,-1.5422,-1.5421,0,0,0,0,0,0,0,-1.5532,-1.5529,-1.5499,-1.5498,-1.5496,-1.5491,-1.5488,-1.5479,-1.5459,-1.5471,-1.5469,-1.5466,-1.5442,-1.5436,-1.5434,-1.5421,-1.5423,-1.5422,-1.5421,-1.5421,-1.5408,-1.5408,0,0,0,0,0,0,-1.5536,-1.553,-1.55,-1.5498,-1.5513,-1.5491,-1.5487,-1.548,-1.5459,-1.5456,-1.5466,-1.5465,-1.5438,-1.5436,-1.5433,-1.5431,-1.5422,-1.5421,-1.542,-1.5408,-1.5408,-1.5408,0,0,0,0,0,0,-1.5537,-1.5533,-1.5501,-1.5514,-1.5509,-1.549,-1.5483,-1.548,-1.5475,-1.5456,-1.5452,-1.5464,-1.5438,-1.5435,-1.5427,-1.5429,-1.542,-1.5419,-1.5407,-1.5408,-1.5408,-1.5425,0,0,0,0,0,0,-1.5538,-1.5534,-1.5533,-1.5514,-1.5509,-1.5495,-1.5484,-1.548,-1.5473,-1.5471,-1.5453,-1.545,-1.5437,-1.5429,-1.5426,-1.5428,-1.5418,-1.5407,-1.5407,-1.5408,-1.5425,-1.5426,-1.5428,0,0,0,0,0,-1.554,-1.5539,-1.5533,-1.5529,-1.5507,-1.5495,-1.5492,-1.5478,-1.5473,-1.5472,-1.546,-1.545,-1.543,-1.5428,-1.5425,-1.5426,-1.5407,-1.5407,-1.5408,-1.5424,-1.5426,-1.5428,0,0,0,0,0,0,-1.5558,-1.5536,-1.5529,-1.5522,-1.5511,-1.5492,-1.549,-1.5481,-1.5471,-1.5469,-1.5453,-1.5449,-1.5443,-1.5434,-1.5433,-1.5425,-1.5417,-1.5417,-1.543,-1.5432,-1.5434,-1.5436,-1.5418,0,0,0,0,0,-1.5562,-1.5554,-1.5535,-1.5531,-1.5525,-1.5509,-1.5503,-1.5493,-1.5481,-1.5476,-1.5463,-1.5452,-1.5443,-1.5437,-1.5428,-1.5424,-1.542,-1.5423,-1.5425,-1.5427,-1.5426,-1.5424,-1.5425,-1.541,-1.541,-1.541,0,0,-1.5569,-1.5555,-1.5551,-1.5534,-1.5524,-1.5517,-1.5505,-1.5497,-1.5492,-1.5475,-1.5467,-1.5458,-1.5444,-1.5438,-1.5435,-1.543,-1.543,-1.5427,-1.5429,-1.5428,-1.5425,-1.5426,-1.5427,-1.541,-1.541,-1.541,0,0,-1.5577,-1.5566,-1.5561,-1.5552,-1.5537,-1.5526,-1.5525,-1.5508,-1.5501,-1.5493,-1.548,-1.5474,-1.5459,-1.5449,-1.5443,-1.5449,-1.544,-1.5447,-1.5455,-1.5453,-1.5454,-1.5455,-1.5457,-1.5458,-1.5447,-1.5447,-1.5447,0,-1.5587,-1.5575,-1.556,-1.5553,-1.5546,-1.5532,-1.5527,-1.5519,-1.5502,-1.5497,-1.5493,-1.5474,-1.5464,-1.5456,-1.5458,-1.5453,-1.5451,-1.5448,-1.5455,-1.5456,-1.5457,-1.5458,-1.5459,-1.5448,-1.5448,-1.5448,-1.5448,0,-1.5588,-1.558,-1.5578,-1.5562,-1.5555,-1.5549,-1.5535,-1.5529,-1.5521,-1.5511,-1.5503,-1.5491,-1.5479,-1.5476,-1.5468,-1.5467,-1.5465,-1.5458,-1.545,-1.5459,-1.5461,-1.5461,-1.5449,-1.5449,-1.5449,-1.5449,0,0,-1.5605,-1.5582,-1.5582,-1.5575,-1.5558,-1.5552,-1.5546,-1.5534,-1.553,-1.552,-1.5515,-1.5503,-1.5497,-1.5489,-1.548,-1.5478,-1.5484,-1.5471,-1.5471,-1.5474,-1.5483,-1.5488,-1.5489,-1.5478,-1.5478,-1.5479,-1.5484,0,-1.5611,-1.5599,-1.5586,-1.5579,-1.5572,-1.5558,-1.5553,-1.5543,-1.5534,-1.5527,-1.5517,-1.5509,-1.5501,-1.5497,-1.5495,-1.5484,-1.5486,-1.5483,-1.5473,-1.5473,-1.5476,-1.5489,-1.5494,-1.5499,-1.5485,-1.5485,-1.5485,0,-1.5615,-1.5605,-1.5597,-1.5581,-1.5578,-1.5573,-1.5562,-1.5555,-1.5544,-1.5537,-1.553,-1.552,-1.5514,-1.5508,-1.5499,-1.5498,-1.5494,-1.5488,-1.5488,-1.5486,-1.5479,-1.5487,-1.5501,-1.5502,-1.5485,-1.5485,-1.5485,0,-1.5628,-1.5612,-1.5606,-1.56,-1.5582,-1.5579,-1.5572,-1.556,-1.5554,-1.5545,-1.5541,-1.5531,-1.5526,-1.5519,-1.5507,-1.5503,-1.55,-1.5492,-1.5494,-1.5494,-1.5493,-1.5493,-1.5506,-1.5492,-1.5492,-1.5492,-1.5491,0,-1.5634,-1.563,-1.5611,-1.5607,-1.5602,-1.5588,-1.5584,-1.5575,-1.5565,-1.5559,-1.5548,-1.5543,-1.5528,-1.5521,-1.5512,-1.5507,-1.5505,-1.5499,-1.5497,-1.55,-1.55,-1.5496,-1.5495,-1.5492,-1.5492,-1.5492,-1.5492,0,-1.5647,-1.5635,-1.5627,-1.5611,-1.5607,-1.5604,-1.559,-1.5586,-1.5577,-1.557,-1.5567,-1.5553,-1.5545,-1.5533,-1.5521,-1.5515,-1.5511,-1.5507,-1.5514,-1.5513,-1.5515,-1.5515,-1.5524,-1.5525,-1.5511,-1.5511,-1.5512,0,-1.5652,-1.5648,-1.5632,-1.5627,-1.562,-1.5612,-1.5606,-1.5594,-1.5588,-1.5575,-1.5572,-1.5563,-1.5555,-1.5543,-1.5532,-1.5523,-1.5519,-1.5523,-1.5517,-1.5521,-1.5518,-1.5518,-1.5518,-1.5524,-1.5524,-1.5524,-1.5524,0,-1.5661,-1.5655,-1.5647,-1.5637,-1.563,-1.5621,-1.5612,-1.5609,-1.5594,-1.5589,-1.558,-1.5574,-1.5562,-1.5554,-1.5543,-1.5536,-1.5528,-1.5527,-1.5526,-1.5529,-1.5533,-1.553,-1.5517,-1.5526,-1.5526,-1.5526,-1.5526,-1.5525,-1.567,-1.5666,-1.5654,-1.5645,-1.5637,-1.5629,-1.5624,-1.5615,-1.5607,-1.5596,-1.559,-1.5581,-1.5571,-1.5556,-1.555,-1.5544,-1.554,-1.554,-1.554,-1.554,-1.5541,-1.5535,-1.5542,-1.5542,-1.5542,-1.5542,-1.5542,0,-1.5678,-1.567,-1.5662,-1.5649,-1.5643,-1.5636,-1.5626,-1.5621,-1.5614,-1.5604,-1.5597,-1.5588,-1.5579,-1.5568,-1.5559,-1.5557,-1.5553,-1.5555,-1.5554,-1.5553,-1.5545,-1.5545,-1.5558,-1.5558,-1.5558,-1.5558,-1.5558,-1.5558,-1.5681,-1.5674,-1.5667,-1.5657,-1.5649,-1.564,-1.5635,-1.5628,-1.5621,-1.561,-1.5603,-1.5596,-1.5586,-1.5577,-1.5569,-1.5566,-1.5563,-1.5566,-1.5562,-1.5555,-1.5553,-1.5552,-1.5552,-1.5566,-1.5566,-1.5571,-1.5571,-1.5571]},{"header":{"parameterUnit":"m.s-1","parameterCategory":1,"la1":30.2991,"la2":30.254,"lo1":-89.0895,"lo2":-89.0444,"dy":0.0017,"dx":0.0017,"nx":28,"ny":28,"refTime":"2024-05-08T03:00:00:Z","depth":0,"parameterNumber":3,"parameterNumberName":"V-component_of_WINDS"},"data":[0,0,0,0,0,0,0,0,0,0,0,0,0,0,0,0,0,0,0,0,0,0,0,0,0,0,0,0,0,0,0,0,0,0,0,0,0,0,0,0,0,0,0,0,0,0,0,0,0,0,0,0,0,0,0,0,0,0,6.8096,6.8096,0,6.8098,6.8098,6.8098,6.8062,6.8061,6.806,6.8059,6.8059,6.806,6.8061,0,0,0,0,0,0,0,0,0,0,0,0,0,6.8058,6.8059,6.8096,6.8096,6.8096,6.8098,6.8098,6.8098,6.8062,6.8061,6.8059,6.8058,6.8059,6.806,6.8061,0,0,0,0,0,0,0,0,0,0,0,0,0,6.8069,6.8059,6.8096,6.8078,6.8076,6.8098,6.8098,6.8098,6.8062,6.8061,6.8059,6.8058,6.8058,6.806,6.8061,6.8099,0,0,6.8065,6.8066,0,0,0,0,0,0,0,0,6.8068,6.807,6.808,6.8079,6.8077,6.8078,6.8085,6.8098,6.8062,6.8067,6.8059,6.8057,6.8066,6.8067,6.8071,6.8099,6.8099,6.8065,6.8066,6.8067,6.8067,0,0,0,0,0,0,0,6.8068,6.807,6.8096,6.8081,6.8079,6.8069,6.8069,6.8087,6.8075,6.8067,6.8064,6.8065,6.8065,6.8069,6.807,6.8099,6.8065,6.8067,6.8067,6.8068,6.8161,6.8163,0,0,0,0,0,0,6.807,6.807,6.8096,6.8097,6.8069,6.8071,6.8071,6.8079,6.8075,6.8073,6.8066,6.8063,6.8068,6.8069,6.807,6.8116,6.8067,6.8068,6.8069,6.816,6.8162,6.8163,0,0,0,0,0,0,6.8069,6.8072,6.8096,6.8082,6.8085,6.8074,6.8083,6.808,6.8084,6.8075,6.8072,6.8073,6.8067,6.8068,6.8093,6.8115,6.8069,6.807,6.8158,6.816,6.8163,6.8207,0,0,0,0,0,0,6.8068,6.8072,6.8087,6.8083,6.8086,6.8119,6.8084,6.8081,6.8087,6.8083,6.808,6.8078,6.8066,6.8091,6.8094,6.8117,6.8071,6.8156,6.8159,6.8162,6.8203,6.8211,6.8217,0,0,0,0,0,6.8067,6.8098,6.8088,6.8091,6.8104,6.8121,6.8122,6.8108,6.8089,6.8103,6.8098,6.8078,6.8113,6.8094,6.8097,6.812,6.8154,6.8158,6.8161,6.82,6.8209,6.8217,0,0,0,0,0,0,6.8103,6.8097,6.8085,6.8117,6.812,6.8114,6.8132,6.8117,6.8125,6.8121,6.8102,6.8102,6.813,6.8127,6.8107,6.8158,6.813,6.8135,6.8158,6.8167,6.8173,6.8173,6.8072,0,0,0,0,0,6.8115,6.813,6.8124,6.8152,6.8154,6.8143,6.815,6.8139,6.8141,6.8142,6.8137,6.8139,6.8151,6.8158,6.8168,6.8203,6.8202,6.8221,6.8227,6.8233,6.8237,6.8257,6.8265,6.8176,6.8176,6.8175,0,0,6.8139,6.8138,6.8148,6.8159,6.816,6.8176,6.8144,6.8161,6.8173,6.8144,6.8167,6.8165,6.8166,6.8196,6.8209,6.8195,6.8262,6.8238,6.8242,6.8243,6.8262,6.827,6.8278,6.8178,6.8178,6.8177,0,0,6.8191,6.8191,6.8216,6.8218,6.8221,6.8214,6.822,6.8218,6.8215,6.8239,6.8218,6.8231,6.825,6.8253,6.8257,6.8313,6.8296,6.8316,6.8351,6.8371,6.8378,6.8384,6.8405,6.8413,6.8321,6.8321,6.8321,0,6.822,6.8244,6.823,6.825,6.8256,6.8232,6.8257,6.8259,6.8265,6.8269,6.8253,6.8279,6.8278,6.831,6.8324,6.8327,6.8334,6.8317,6.8378,6.8384,6.839,6.841,6.8418,6.8323,6.8323,6.8323,6.8322,0,6.8281,6.8298,6.8317,6.8325,6.8333,6.8355,6.8345,6.8354,6.8344,6.8338,6.8363,6.8362,6.8372,6.8378,6.8367,6.8409,6.84,6.8382,6.8353,6.8401,6.842,6.8427,6.8327,6.8326,6.8325,6.8325,0,0,6.8354,6.8356,6.8364,6.8368,6.837,6.8383,6.8404,6.8416,6.8425,6.843,6.8448,6.8466,6.845,6.8455,6.8443,6.846,6.8507,6.844,6.844,6.8453,6.8554,6.8569,6.8578,6.8496,6.8497,6.8498,6.8555,0,6.8406,6.8444,6.8433,6.8471,6.8488,6.8466,6.8485,6.8489,6.8485,6.8498,6.8493,6.8507,6.8484,6.8487,6.8503,6.8498,6.8527,6.8493,6.8512,6.8513,6.8513,6.8587,6.8602,6.8655,6.8562,6.8563,6.8564,0,6.8472,6.8482,6.8522,6.8524,6.853,6.8548,6.8558,6.8571,6.8574,6.857,6.8577,6.8563,6.8584,6.8556,6.8586,6.8563,6.8571,6.857,6.8571,6.8573,6.8542,6.8591,6.8672,6.868,6.8575,6.8574,6.8573,0,6.8523,6.8546,6.8574,6.8578,6.858,6.8593,6.8595,6.8597,6.8606,6.8615,6.862,6.8631,6.8637,6.8645,6.8635,6.8615,6.8666,6.8637,6.8664,6.8664,6.8676,6.8675,6.8759,6.868,6.8679,6.8679,6.8679,0,6.8582,6.8608,6.8597,6.8614,6.8643,6.863,6.8659,6.8658,6.8661,6.8677,6.8658,6.8674,6.8659,6.8673,6.8665,6.8692,6.8694,6.8692,6.8689,6.8694,6.8694,6.8698,6.8695,6.8681,6.8681,6.868,6.868,0,6.8644,6.8638,6.8667,6.8668,6.8669,6.869,6.8691,6.8707,6.8702,6.8724,6.8728,6.872,6.8737,6.8727,6.8743,6.8737,6.8773,6.8765,6.8772,6.877,6.8798,6.8796,6.8888,6.89,6.8812,6.8813,6.8813,0,6.8683,6.8703,6.8707,6.8718,6.8721,6.8737,6.8747,6.8735,6.8745,6.8752,6.8768,6.8783,6.8794,6.8821,6.8817,6.8829,6.8822,6.8853,6.8823,6.8828,6.8823,6.8823,6.8825,6.8859,6.886,6.8861,6.8862,0,6.8753,6.8749,6.8764,6.8778,6.879,6.8799,6.8808,6.8817,6.8806,6.8818,6.8835,6.8845,6.8862,6.8877,6.8888,6.8889,6.8874,6.8872,6.8879,6.8884,6.8888,6.8887,6.8789,6.8869,6.8869,6.8868,6.8868,6.8867,6.8805,6.8822,6.8829,6.8846,6.8851,6.886,6.8876,6.8875,6.8889,6.8904,6.8896,6.8916,6.8921,6.8935,6.8938,6.8954,6.8941,6.8951,6.8953,6.8956,6.8961,6.8885,6.8955,6.8955,6.8955,6.8955,6.8955,0,6.8875,6.8879,6.8894,6.8908,6.8922,6.8908,6.8917,6.8929,6.8948,6.8954,6.8967,6.8987,6.9003,6.9001,6.9014,6.9028,6.9021,6.9032,6.9031,6.9032,6.8971,6.8964,6.9037,6.9037,6.9037,6.9037,6.9037,6.9037,6.8913,6.8942,6.894,6.8972,6.8975,6.8997,6.9004,6.9012,6.9017,6.9042,6.9055,6.9054,6.9057,6.9072,6.9085,6.9084,6.909,6.9104,6.91,6.9044,6.9036,6.9028,6.9021,6.9105,6.9105,6.916,6.916,6.9161]}]]